�������C�����ː����j�^�v���󋵏��
Date,Time,Cs137(Bq/L),Cs134(Bq/L),�S��(Bq/L)
2017/09/21,00:00,1.4,0.085,ND
2017/09/21,00:10,1.3,0.13,ND
2017/09/21,00:20,1.3,0.13,ND
2017/09/21,00:30,1.3,0.12,ND
2017/09/21,00:40,1.2,0.11,ND
2017/09/21,00:50,1.2,0.11,ND
2017/09/21,01:00,1.2,0.10,ND
2017/09/21,01:10,1.3,0.096,ND
2017/09/21,01:20,1.2,0.10,ND
2017/09/21,01:30,1.2,0.10,ND
2017/09/21,01:40,1.2,0.099,ND
2017/09/21,01:50,1.2,0.10,ND
2017/09/21,02:00,1.2,0.10,ND
2017/09/21,02:10,1.2,0.10,ND
2017/09/21,02:20,1.3,0.093,ND
2017/09/21,02:30,1.2,0.11,ND
2017/09/21,02:40,1.2,0.11,ND
2017/09/21,02:50,1.2,0.12,ND
2017/09/21,03:00,1.2,0.12,ND
2017/09/21,03:10,1.2,0.13,ND
2017/09/21,03:20,1.1,0.14,ND
2017/09/21,03:30,1.2,0.12,ND
2017/09/21,03:40,1.2,0.13,ND
2017/09/21,03:50,1.2,0.12,ND
2017/09/21,04:00,1.2,0.11,ND
2017/09/21,04:10,1.4,0.081,ND
2017/09/21,04:20,1.3,0.086,ND
2017/09/21,04:30,1.4,0.068,ND
2017/09/21,04:40,1.3,0.084,ND
2017/09/21,04:50,1.4,0.082,ND
2017/09/21,05:00,1.2,0.093,ND
2017/09/21,05:10,1.2,0.094,ND
2017/09/21,05:20,1.3,0.099,ND
2017/09/21,05:30,1.3,0.096,ND
2017/09/21,05:40,1.2,0.10,ND
2017/09/21,05:50,1.3,0.096,ND
2017/09/21,06:00,1.1,0.089,ND
2017/09/21,06:10,1.1,0.075,ND
2017/09/21,06:20,1.1,0.077,ND
2017/09/21,06:30,1.1,0.072,ND
2017/09/21,06:40,1.2,0.067,ND
2017/09/21,06:50,1.2,0.070,ND
2017/09/21,07:00,1.2,0.076,ND
2017/09/21,07:10,1.2,0.084,ND
2017/09/21,07:20,1.2,0.083,ND
2017/09/21,07:30,1.1,0.091,ND
2017/09/21,07:40,1.1,0.10,ND
2017/09/21,07:50,1.1,0.11,ND
2017/09/21,08:00,1.1,0.10,ND
2017/09/21,08:10,1.2,0.080,ND
2017/09/21,08:20,1.2,0.075,ND
2017/09/21,08:30,1.2,0.079,ND
2017/09/21,08:40,1.2,0.074,ND
2017/09/21,08:50,1.1,0.11,ND
2017/09/21,09:00,1.2,0.063,ND
2017/09/21,09:10,1.2,0.062,ND
2017/09/21,09:20,1.1,0.055,ND
2017/09/21,09:30,1.1,0.051,ND
2017/09/21,09:40,1.0,0.073,ND
2017/09/21,09:50,1.0,0.057,ND
2017/09/21,10:00,0.99,0.071,ND
2017/09/21,10:10,0.97,0.060,ND
2017/09/21,10:20,0.94,0.068,ND
2017/09/21,10:30,0.96,0.061,ND
2017/09/21,10:40,0.92,0.074,ND
2017/09/21,10:50,0.91,0.084,ND
2017/09/21,11:00,0.89,0.078,ND
2017/09/21,11:10,0.92,0.074,ND
2017/09/21,11:20,0.94,0.065,ND
2017/09/21,11:30,0.94,0.062,ND
2017/09/21,11:40,0.96,0.053,ND
2017/09/21,11:50,0.95,0.048,ND
2017/09/21,12:00,0.93,0.049,ND
2017/09/21,12:10,0.92,0.050,ND
2017/09/21,12:20,0.92,0.053,ND
2017/09/21,12:30,0.91,0.064,ND
2017/09/21,12:40,0.98,0.045,ND
2017/09/21,12:50,0.99,0.047,ND
2017/09/21,13:00,1.0,0.051,ND
2017/09/21,13:10,0.92,0.074,ND
2017/09/21,13:20,0.88,0.085,ND
2017/09/21,13:30,0.89,0.087,ND
2017/09/21,13:40,0.90,0.077,ND
2017/09/21,13:50,0.91,0.084,ND
2017/09/21,14:00,0.94,0.078,ND
2017/09/21,14:10,0.96,0.091,ND
2017/09/21,14:20,1.0,0.080,ND
2017/09/21,14:30,1.0,0.069,ND
2017/09/21,14:40,1.0,0.073,ND
2017/09/21,14:50,1.0,0.064,ND
2017/09/21,15:00,1.1,0.062,ND
2017/09/21,15:10,1.1,0.059,ND
2017/09/21,15:20,1.1,0.060,ND
2017/09/21,15:30,0.93,0.074,ND
2017/09/21,15:40,0.91,0.071,ND
2017/09/21,15:50,0.89,0.079,ND
2017/09/21,16:00,0.98,0.046,ND
2017/09/21,16:10,0.97,0.034,ND
2017/09/21,16:20,0.97,0.034,ND
2017/09/21,16:30,0.94,0.029,ND
2017/09/21,16:40,1.0,ND,ND
2017/09/21,16:50,1.0,ND,ND
2017/09/21,17:00,0.90,0.050,ND
2017/09/21,17:10,0.91,0.060,ND
2017/09/21,17:20,0.95,0.060,ND
2017/09/21,17:30,1.0,0.057,ND
2017/09/21,17:40,0.99,0.068,ND
2017/09/21,17:50,0.98,0.068,ND
2017/09/21,18:00,0.95,0.073,ND
2017/09/21,18:10,0.93,0.059,ND
2017/09/21,18:20,0.87,0.064,ND
2017/09/21,18:30,0.84,0.057,ND
2017/09/21,18:40,0.82,0.052,ND
2017/09/21,18:50,0.85,0.042,ND
2017/09/21,19:00,0.87,0.037,ND
2017/09/21,19:10,0.89,0.044,ND
2017/09/21,19:20,0.93,0.046,ND
2017/09/21,19:30,0.96,0.050,ND
2017/09/21,19:40,0.96,0.060,ND
2017/09/21,19:50,0.96,0.066,ND
2017/09/21,20:00,0.95,0.067,ND
2017/09/21,20:10,0.94,0.059,ND
2017/09/21,20:20,0.88,0.066,ND
2017/09/21,20:30,0.84,0.062,ND
2017/09/21,20:40,0.82,0.052,ND
2017/09/21,20:50,0.94,ND,ND
2017/09/21,21:00,0.81,0.039,ND
2017/09/21,21:10,0.80,0.046,ND
2017/09/21,21:20,0.83,0.036,ND
2017/09/21,21:30,0.82,0.036,ND
2017/09/21,21:40,0.82,0.036,ND
2017/09/21,21:50,0.81,0.046,ND
2017/09/21,22:00,0.80,0.054,ND
2017/09/21,22:10,0.88,0.050,ND
2017/09/21,22:20,0.78,0.057,ND
2017/09/21,22:30,0.78,0.059,ND
2017/09/21,22:40,0.77,0.068,ND
2017/09/21,22:50,0.76,0.072,ND
2017/09/21,23:00,0.75,0.076,ND
2017/09/21,23:10,0.76,0.078,ND
2017/09/21,23:20,0.76,0.071,ND
2017/09/21,23:30,0.86,0.073,ND
2017/09/21,23:40,0.91,0.038,ND
2017/09/21,23:50,0.91,0.032,ND
